Regional Weather Roundup
Issued by NWS

Home | Current Version | Previous Version | Text Only | Print | Product List | Glossary Off
Versions: 1 2 3 4 5 6 7 8 9 10 11 12 13 14 15 16 17 18 19 20 21 22 23 24 25 26 27 28 29 30 31 32 33 34 35 36 37 38 39 40 41 42 43 44 45 46 47 48 49 50

719
ASUS45 KTFX 271010
RWRMT
MONTANA REGIONAL WEATHER ROUNDUP
NATIONAL WEATHER SERVICE GREAT FALLS MT
400 AM MDT MON MAR 27 2017

NOTE: "FAIR" INDICATES FEW OR NO CLOUDS BELOW 12000 FEET WITH NO
SIGNIFICANT WEATHER AND/OR OBSTRUCTIONS TO VISIBILITY.

MTZ001>007-043-271100-
WEST OF THE DIVIDE

CITY           SKY/WX    TMP DP  RH WIND       PRES   REMARKS
KALISPELL      LGT RAIN  38  37  97 CALM      29.81F
MISSOULA       CLOUDY    39  38  96 CALM      29.84S
BUTTE          CLOUDY    37  30  75 NE3       29.82F
MULLAN PASS    SNOW      30  30 100 VRB3      29.77S VSB 1/4
ANACONDA         N/A     37  28  70 W3        29.83R
DEER LODGE       N/A     37  34  87 CALM      29.85S
EUREKA           N/A     39  36  87 CALM      29.81R
HAMILTON         N/A     41  34  75 CALM      29.83S
PLAINS           N/A     40  35  82 CALM      29.84S
RONAN            N/A     41  37  85 CALM      29.87S
$$

MTZ008-052>055-271100-
SOUTHWEST MONTANA

CITY           SKY/WX    TMP DP  RH WIND       PRES   REMARKS
BOZEMAN        CLOUDY    40  32  73 CALM      29.83S
DILLON         CLOUDY    37  31  78 S3        29.82S
W YELLOWSTONE  LGT SNOW  32  30  93 SW7       29.88S WCI  26
ENNIS          CLOUDY    37  28  70 S9        29.87S WCI  31
THREE FORKS      N/A     40  -2  17 CALM      29.83S
TWIN BRIDGES     N/A     36  29  76 CALM      29.83F
$$

MTZ009-010-012-014-046-048-049-054-271100-
EAST SLOPES AND CENTRAL MONTANA

CITY           SKY/WX    TMP DP  RH WIND       PRES   REMARKS
CUT BANK       CLOUDY    37  29  72 S3        29.79S
GREAT FALLS    CLOUDY    39  26  59 SW7       29.79S
MALMSTROM AFB  MOCLDY    42  28  57 SW9       29.79S
HELENA         CLOUDY    42  35  76 W7        29.82R
AUGUSTA        MOCLDY    35  30  80 W6        29.78S WCI  30
BOWMANS CRNR   MOCLDY    37  30  75 S10       29.77S WCI  30
CHOTEAU          N/A     41  32  70 W7        29.80S
CONRAD           N/A     38  27  65 S1        29.82F
FAIRFIELD      MOCLDY    39  28  63 CALM      29.78S
POWER            N/A     34  21  59 W6        29.78S WCI  29
RAYNESFORD       N/A     43  30  61 SW15      29.79S
$$

MTZ011-013-016-021-045-047-050-051-271100-
NORTH CENTRAL MONTANA

CITY           SKY/WX    TMP DP  RH WIND       PRES   REMARKS
HAVRE          CLOUDY    40  25  55 VRB5      29.80S
LEWISTOWN      CLOUDY    42  28  57 SW7       29.80F
N BAR RANCH    CLOUDY    39  27  60 NW3       29.83S
CHINOOK          N/A     36  25  64 E7        29.83S WCI  30
DENTON         MOCLDY    39  26  59 S8        29.75F
GEYSER         MOCLDY    38  24  56 W3        29.79S
GRASS RANGE    CLOUDY    39  30  71 W7        29.78S
STANFORD       CLOUDY    41  29  62 CALM      29.79S
WINIFRED       CLOUDY    39  27  62 SE10      29.78F
$$

MTZ017>020-022>027-061-062-271100-
NORTHEAST MONTANA

CITY           SKY/WX    TMP DP  RH WIND       PRES   REMARKS
GLASGOW        CLOUDY    35  24  64 E10       29.84F WCI  27
JORDAN           N/A     36  27  69 E5        29.81F
SIDNEY         MOCLDY    34  28  79 N6        29.86F WCI  29
WOLF POINT     CLOUDY    33  26  75 E3        29.87F
MALTA          CLOUDY    32  28  86 CALM      29.84S
PLENTYWOOD       N/A     34  23  64 CALM      29.88F
POPLAR           N/A     34  28  80 N6        29.88S WCI  29
SCOBEY           N/A     23  15  71 CALM      29.87R
$$

MTZ028>42-056>058-271100-
SOUTHCENTRAL AND SOUTHEAST MONTANA

CITY           SKY/WX    TMP DP  RH WIND       PRES   REMARKS
BAKER          CLOUDY    36  32  85 SE7       29.86F WCI  30
BILLINGS       CLOUDY    44  32  62 SW7       29.80R
LIVINGSTON     CLOUDY    41  30  65 W12       29.81S
MILES CITY     CLOUDY    44  35  70 SE6       29.82F
BIG TIMBER     CLOUDY    41  30  65 W8        29.84S
EKALAKA          N/A     39  30  70 SE7       29.84F
FORSYTH          N/A     45  36  70 CALM      29.80S
HARLOWTON      MOCLDY    39  29  69 NW10      29.81S WCI  32
LAUREL           N/A     41  27  57 CALM      29.81S
$$

REGIONAL REPORTS...DAKOTAS

CITY           SKY/WX    TMP DP  RH WIND       PRES   REMARKS
WILLISTON      MOCLDY    34  30  85 W3        29.89R
MINOT          CLEAR     34  31  88 CALM      29.86F
DICKINSON      CLOUDY    36  31  82 S6        29.85S WCI  31
BEACH            N/A    N/A N/A N/A MISG        N/A
TIOGA          MOCLDY    30  30 100 CALM      29.89S
WATFORD CITY     N/A     32  30  93 CALM      29.87S
BISMARCK       PTCLDY    32  30  92 NE6       29.90F WCI  26
GRAND FORKS    FOG       38  38 100 CALM      29.96S VSB 1/4
FARGO          CLOUDY    33  32  96 E3        29.95S FOG
BUFFALO SD       N/A     38  34  85 S6        29.81S
RAPID CITY     FOG       29  28  96 CALM      29.89R VSB 1/4
$$

REGIONAL REPORTS...WYOMING/IDAHO/WASHINGTON

CITY           SKY/WX    TMP DP  RH WIND       PRES   REMARKS
GILLETTE       CLEAR     37  34  89 S9        29.83F WCI  30
SHERIDAN       CLOUDY    42  35  76 NW9       29.82R
BUFFALO WY     CLOUDY    40  32  73 SE8       29.81F
CODY           CLOUDY    43  22  43 W9        29.83F
YELLOWSTONE LA   N/A     27  27 100 NE3       29.89F
IDAHO FALLS    CLOUDY    40  37  89 S9        29.89F
SALMON         CLOUDY    37  32  81 CALM      29.82S
BOISE          CLOUDY    43  40  89 SE8       29.89F
SPOKANE        LGT RAIN  41  40  96 SE6       29.82R FOG
$$

REGIONAL REPORTS...ALBERTA

CITY           SKY/WX    TMP DP  RH WIND       PRES   REMARKS
EDMONTON       CLOUDY    34  30  86 E7        29.77S WCI  28
CALGARY        MOCLDY    37  16  41 SW6       29.72R
LETHBRIDGE     MOCLDY    41  32  70 S16       29.77S
MEDICINE HAT   CLOUDY    41  25  52 S12       29.79S
MILK RIVER       N/A     37  32  81 E1          N/A
ONEFOUR          N/A     36  25  64 N6          N/A  WCI  31
$$

REGIONAL REPORTS...SASKATCHEWAN

CITY           SKY/WX    TMP DP  RH WIND       PRES   REMARKS
SWIFT CURRENT  PTCLDY    27  27 100 E10       29.83S FOG     WCI  17
REGINA         FOG       28  28 100 N5        29.89S VSB 3/8
SASKATOON      FOG       27  25  93 E7        29.97R VSB 3/4 WCI  19
$$




USA.gov is the U.S. government's official web portal to all federal, state and local government web resources and services.